When you browse on this site, cookies collect data to enhance your experience and personalize the content and advertising you see.
Visit our Privacy Policy to learn more. By continuing to use the site, you agree to this use of cookies and data.
  • în România
  • Lista ţărilor
  • Pe 7 zile
  • Temperatura apei
  • Hartă satelitară
  • Meteo pe hartă
  • Widget-uri
  • user-avatar
    Intrare

    Meteo pe oră la Wronki

    Astăzi, 18 Martie, Luni

    Timp Temperatura Precipitaţii Vânt Presiune Umiditate
    00:00 +6°C° 0 mm 5 m/s 749 mmHg 72%
    01:00 +5°C° 0 mm 4 m/s 749 mmHg 75%
    02:00 +5°C° 0 mm 5 m/s 750 mmHg 74%
    03:00 +5°C° 0 mm 5 m/s 750 mmHg 74%
    04:00 +3°C° 0 mm 5 m/s 750 mmHg 74%
    05:00 +3°C° 0 mm 5 m/s 750 mmHg 74%
    06:00 +3°C° 0 mm 5 m/s 751 mmHg 73%
    07:00 +3°C° 0 mm 4 m/s 751 mmHg 73%
    08:00 +3°C° 0 mm 5 m/s 751 mmHg 68%
    09:00 +4°C° 0 mm 6 m/s 752 mmHg 63%
    10:00 +5°C° 0 mm 7 m/s 752 mmHg 59%
    11:00 +5°C° 0 mm 7 m/s 752 mmHg 59%
    12:00 +5°C° 0 mm 7 m/s 753 mmHg 59%
    13:00 +5°C° 0 mm 8 m/s 753 mmHg 60%
    14:00 +5°C° 0 mm 7 m/s 753 mmHg 57%
    15:00 +6°C° 0 mm 7 m/s 753 mmHg 54%
    16:00 +6°C° 0 mm 7 m/s 753 mmHg 52%
    17:00 +5°C° 0 mm 6 m/s 754 mmHg 56%
    18:00 +5°C° 0 mm 6 m/s 754 mmHg 60%
    19:00 +5°C° 0 mm 5 m/s 754 mmHg 64%
    20:00 +3°C° 0 mm 5 m/s 755 mmHg 66%
    21:00 +3°C° 0 mm 5 m/s 755 mmHg 68%
    22:00 +3°C° 0 mm 5 m/s 756 mmHg 70%
    23:00 +2°C° 0 mm 5 m/s 756 mmHg 72%

    Mâine, 19 Martie, Marţi

    Timp Temperatura Precipitaţii Vânt Presiune Umiditate
    00:00 +2°C° 0 mm 5 m/s 757 mmHg 73%
    01:00 +1°C° 0 mm 5 m/s 757 mmHg 74%
    02:00 +1°C° 0 mm 5 m/s 758 mmHg 77%
    03:00 +1°C° 0 mm 5 m/s 758 mmHg 79%
    04:00 0°C° 0 mm 5 m/s 759 mmHg 81%
    05:00 0°C° 0 mm 5 m/s 759 mmHg 82%
    06:00 0°C° 0 mm 5 m/s 760 mmHg 83%
    07:00 0°C° 0 mm 5 m/s 760 mmHg 85%
    08:00 +1°C° 0 mm 5 m/s 761 mmHg 79%
    09:00 +2°C° 0 mm 5 m/s 761 mmHg 73%
    10:00 +5°C° 0 mm 5 m/s 762 mmHg 67%
    11:00 +6°C° 0 mm 5 m/s 762 mmHg 62%
    12:00 +7°C° 0 mm 5 m/s 762 mmHg 56%
    13:00 +7°C° 0 mm 5 m/s 763 mmHg 51%
    14:00 +7°C° 0.1 mm 5 m/s 763 mmHg 50%
    15:00 +7°C° 0.1 mm 5 m/s 763 mmHg 50%
    16:00 +7°C° 0.1 mm 5 m/s 763 mmHg 49%
    17:00 +6°C° 0 mm 5 m/s 764 mmHg 53%
    18:00 +5°C° 0 mm 4 m/s 764 mmHg 57%
    19:00 +4°C° 0 mm 3 m/s 765 mmHg 62%
    20:00 +3°C° 0 mm 3 m/s 765 mmHg 65%
    21:00 +2°C° 0 mm 3 m/s 766 mmHg 68%
    22:00 +2°C° 0 mm 3 m/s 767 mmHg 71%
    23:00 +2°C° 0 mm 2 m/s 767 mmHg 74%

    Poimâine, 20 Martie, Miercuri

    Timp Temperatura Precipitaţii Vânt Presiune Umiditate
    00:00 +2°C° 0 mm 2 m/s 767 mmHg 77%
    01:00 +1°C° 0 mm 2 m/s 768 mmHg 80%
    02:00 +1°C° 0 mm 2 m/s 768 mmHg 81%
    03:00 +1°C° 0 mm 2 m/s 768 mmHg 83%
    04:00 -1°C° 0 mm 2 m/s 768 mmHg 85%
    05:00 +1°C° 0 mm 2 m/s 768 mmHg 84%
    06:00 +1°C° 0 mm 2 m/s 769 mmHg 84%
    07:00 +1°C° 0 mm 2 m/s 769 mmHg 83%
    08:00 +3°C° 0 mm 2 m/s 769 mmHg 74%
    09:00 +4°C° 0 mm 3 m/s 769 mmHg 65%
    10:00 +7°C° 0 mm 3 m/s 770 mmHg 56%
    11:00 +8°C° 0 mm 3 m/s 769 mmHg 51%
    12:00 +9°C° 0 mm 3 m/s 769 mmHg 47%
    13:00 +10°C° 0 mm 3 m/s 769 mmHg 42%
    14:00 +11°C° 0 mm 3 m/s 769 mmHg 42%
    15:00 +11°C° 0 mm 3 m/s 769 mmHg 43%
    16:00 +11°C° 0 mm 4 m/s 768 mmHg 43%
    17:00 +10°C° 0 mm 3 m/s 769 mmHg 48%
    18:00 +8°C° 0 mm 3 m/s 769 mmHg 54%
    19:00 +7°C° 0 mm 2 m/s 769 mmHg 59%
    20:00 +7°C° 0 mm 3 m/s 769 mmHg 61%
    21:00 +5°C° 0 mm 3 m/s 769 mmHg 63%
    22:00 +5°C° 0 mm 3 m/s 769 mmHg 65%
    23:00 +5°C° 0 mm 3 m/s 769 mmHg 65%

    21 Martie, Joi

    Timp Temperatura Precipitaţii Vânt Presiune Umiditate
    00:00 +5°C° 0 mm 3 m/s 769 mmHg 66%
    01:00 +4°C° 0 mm 3 m/s 769 mmHg 66%
    02:00 +4°C° 0 mm 3 m/s 769 mmHg 67%
    03:00 +4°C° 0 mm 3 m/s 769 mmHg 68%
    04:00 +4°C° 0 mm 3 m/s 769 mmHg 68%
    05:00 +4°C° 0 mm 3 m/s 769 mmHg 71%
    06:00 +4°C° 0 mm 3 m/s 769 mmHg 73%
    07:00 +5°C° 0 mm 3 m/s 769 mmHg 75%
    08:00 +7°C° 0 mm 3 m/s 769 mmHg 75%
    09:00 +8°C° 0 mm 3 m/s 769 mmHg 75%
    10:00 +9°C° 0 mm 3 m/s 770 mmHg 76%
    11:00 +10°C° 0 mm 3 m/s 769 mmHg 72%
    12:00 +12°C° 0 mm 3 m/s 769 mmHg 69%
    13:00 +13°C° 0 mm 3 m/s 769 mmHg 66%
    14:00 +13°C° 0 mm 3 m/s 769 mmHg 68%
    15:00 +13°C° 0 mm 3 m/s 768 mmHg 70%
    16:00 +14°C° 0 mm 2 m/s 768 mmHg 72%
    17:00 +13°C° 0 mm 2 m/s 768 mmHg 75%
    18:00 +12°C° 0 mm 2 m/s 768 mmHg 78%
    19:00 +11°C° 0 mm 1 m/s 768 mmHg 82%
    20:00 +11°C° 0 mm 1 m/s 768 mmHg 83%
    21:00 +11°C° 0 mm 1 m/s 768 mmHg 84%
    22:00 +10°C° 0 mm 1 m/s 768 mmHg 86%
    23:00 +10°C° 0 mm 1 m/s 767 mmHg 87%

    22 Martie, Vineri

    Timp Temperatura Precipitaţii Vânt Presiune Umiditate
    00:00 +10°C° 0 mm 1 m/s 767 mmHg 88%
    01:00 +9°C° 0 mm 1 m/s 767 mmHg 89%
    02:00 +8°C° 0 mm 2 m/s 767 mmHg 90%
    03:00 +8°C° 0 mm 2 m/s 767 mmHg 90%
    04:00 +8°C° 0 mm 2 m/s 766 mmHg 91%
    05:00 +8°C° 0 mm 2 m/s 766 mmHg 90%
    06:00 +8°C° 0 mm 2 m/s 766 mmHg 90%
    07:00 +7°C° 0 mm 2 m/s 766 mmHg 89%
    08:00 +9°C° 0 mm 3 m/s 766 mmHg 79%
    09:00 +11°C° 0 mm 4 m/s 766 mmHg 69%
    10:00 +13°C° 0 mm 4 m/s 766 mmHg 59%
    11:00 +15°C° 0 mm 5 m/s 766 mmHg 56%
    12:00 +16°C° 0 mm 5 m/s 765 mmHg 53%
    13:00 +17°C° 0 mm 5 m/s 765 mmHg 50%
    14:00 +17°C° 0 mm 6 m/s 765 mmHg 52%
    15:00 +16°C° 0 mm 6 m/s 765 mmHg 54%
    16:00 +16°C° 0 mm 6 m/s 765 mmHg 55%
    17:00 +14°C° 0 mm 5 m/s 766 mmHg 61%
    18:00 +13°C° 0 mm 5 m/s 767 mmHg 66%
    19:00 +12°C° 0 mm 5 m/s 767 mmHg 71%
    20:00 +10°C° 0 mm 4 m/s 768 mmHg 67%
    21:00 +9°C° 0 mm 3 m/s 768 mmHg 63%
    22:00 +7°C° 0 mm 3 m/s 769 mmHg 59%
    23:00 +7°C° 0 mm 2 m/s 769 mmHg 60%

    23 Martie, Sâmbătă

    Timp Temperatura Precipitaţii Vânt Presiune Umiditate
    00:00 +6°C° 0 mm 2 m/s 769 mmHg 62%
    01:00 +5°C° 0 mm 2 m/s 769 mmHg 63%
    02:00 +5°C° 0 mm 1 m/s 769 mmHg 65%
    03:00 +5°C° 0 mm 1 m/s 769 mmHg 67%
    04:00 +3°C° 0 mm 0 m/s 769 mmHg 69%
    05:00 +5°C° 0 mm 1 m/s 769 mmHg 68%
    06:00 +5°C° 0 mm 1 m/s 769 mmHg 67%
    07:00 +5°C° 0 mm 1 m/s 769 mmHg 67%
    08:00 +7°C° 0 mm 1 m/s 769 mmHg 59%
    09:00 +7°C° 0 mm 2 m/s 768 mmHg 50%
    10:00 +9°C° 0 mm 2 m/s 768 mmHg 42%
    11:00 +11°C° 0 mm 3 m/s 767 mmHg 38%
    12:00 +12°C° 0 mm 3 m/s 767 mmHg 33%
    13:00 +13°C° 0 mm 3 m/s 766 mmHg 29%
    14:00 +14°C° 0 mm 3 m/s 765 mmHg 30%
    15:00 +14°C° 0 mm 3 m/s 764 mmHg 32%
    16:00 +16°C° 0 mm 3 m/s 764 mmHg 33%
    17:00 +13°C° 0 mm 3 m/s 763 mmHg 39%
    18:00 +12°C° 0 mm 3 m/s 763 mmHg 44%
    19:00 +10°C° 0 mm 3 m/s 763 mmHg 49%
    20:00 +10°C° 0 mm 3 m/s 763 mmHg 57%
    21:00 +10°C° 0 mm 3 m/s 763 mmHg 64%
    22:00 +10°C° 0 mm 3 m/s 763 mmHg 71%
    23:00 +10°C° 0 mm 3 m/s 762 mmHg 76%
    Arată mai mult